Showing default

SUPERVIEW NEO-2 03, 62079

Orbit data source: Space-Track

SUPERVIEW NEO-2 03, 62079 is a payload satellite owned by Siwei (CN) in SSO that was launched on Sun, 24 Nov 2024 UTC via a CHANG ZHENG 2C launch vehicle from the Jiuquan Satellite Launch Center, China (JSC). Payload-class satellites include a variety of spacecraft equipped with specific instruments for various scientific and technological missions. These include communications satellites like Starlink; space stations such as the ISS; scientific satellites like the Hubble; Earth observation satellites from companies like Planet Labs, Umbra, and HawkEye 360; GPS; miniature CubeSats for education and research; and military/defense satellites.

Loading next visibility...
Identifier
62079, 2024-218B
Orbit
SSO
Country
Flag of CNCN / PRC
Related business
Manufacturer
DFH
Mission
Operational Commercial Radar Imaging
Bus & Motor
SIWEI, Unknown motor
Mass
600 kg wet, ~500 kg dry
Launch date (UTC)
2024-11-24 (1 year ago)
Launch vehicle
CHANG ZHENG 2C
Launch site
Jiuquan Satellite Launch Center, China (JSC)
Object type
Payload
Rocket body
Debris
Shape & HBR
Box, 0.3 m
Radar Cross Section
0.375 m², Large (>1 m²)

Expand to show TLE details & history
Last TLE update: 10 hours ago

TLE from 10 hours ago
0 SUPERVIEW NEO-2 03
1 62079U 24218B   25312.60723859  .00003946  00000-0  18785-3 0  9998
2 62079  97.4380 318.1149 0001675 106.5524 253.5894 15.19726249 52948
Epoch: 2025-11-08T14:34Z
TLE epoch observation values (Epoch: 2025-11-08T14:34:25.414Z)
Latitude
-0.0001°
Longitude
51.4746°
Altitude
510.082 km
Speed
7.609 km/s
True Right ascension
21h 12m 27s
True Declination
0° 00' 00"
Sunlit
Object was in daylight at epoch
Visualization orbit readout
Latitude
Unknown
Longitude
Unknown
Altitude
Unknown
Speed
Unknown
Apparent Right ascension
Unknown
Apparent Declination
Unknown
Sunlit
N/A
Visualization observer readout
Local Sidereal Time
21:04:58
Azimuth
Unknown
Elevation
Unknown
Doppler factor
Unknown
Orbital elements
Apogee altitude
504.788 km
Perigee altitude
502.482 km
Semi-major axis
6,881.772 km
Eccentricity
0.00017
Inclination
97.438°
RAAN
318.1149°
Arg. of periapsis
106.5524°
True anomaly
253.57099°
Mean anomaly
253.5894°
Eccentric anomaly
253.58019°
Mean motion
3.80183 °/min
Orbital period
94.69 mins
BSTAR
0.00018785
Loading maneuver chart data...
Computing Atmospheric mass density...
Loading historical data...
Loading historical data...
Loading historical data...
Loading historical data...
Loading historical data...
Loading historical data...
Loading historical data...
Other satellites on launch #218 in the year 2024 (2024-11-24 UTC)

Documentation

Showing up to 5 results
|